| time (UTC) | temp C | wind direction | speed KPH | gust KPH | rain 1hr cm | rain 24hr cm | rain mn cm | humidity % | barometer mb |
| 20260831192219 | 15 | 247 | 9.7 | 17.7 | 0.00 | 0.00 | 0.00 | 85 | 1013.7 |
| 20260831190719 | 16 | 248 | 17.7 | 27.4 | 0.03 | 0.00 | 0.00 | 75 | 1013.2 |
| 20260831185218 | 17 | 251 | 17.7 | 27.4 | 0.00 | 0.00 | 0.00 | 67 | 1012.7 |
| 20260831183718 | 17 | 252 | 17.7 | 27.4 | 0.00 | 0.00 | 0.00 | 68 | 1012.6 |
| 20260831182217 | 16 | 248 | 12.9 | 27.4 | 0.00 | 0.00 | 0.00 | 70 | 1012.2 |
| 20260831180717 | 17 | 251 | 17.7 | 27.4 | 0.00 | 0.00 | 0.00 | 68 | 1012.0 |
| 20260831175216 | 17 | 251 | 17.7 | 27.4 | 0.00 | 0.00 | 0.00 | 68 | 1012.0 |
| 20260831173716 | 17 | 249 | 17.7 | 27.4 | 0.00 | 0.00 | 0.00 | 65 | 1011.8 |
| 20260831172215 | 17 | 246 | 17.7 | 27.4 | 0.00 | 0.00 | 0.00 | 67 | 1011.7 |
| 20260831170716 | 17 | 254 | 17.7 | 32.2 | 0.00 | 0.00 | 0.00 | 66 | 1011.4 |
| 20260831165214 | 17 | 262 | 12.9 | 24.1 | 0.00 | 0.00 | 0.00 | 68 | 1011.3 |
| 20260831163714 | 17 | 261 | 17.7 | 24.1 | 0.00 | 0.00 | 0.00 | 71 | 1011.1 |
| 20260831162214 | 17 | 250 | 12.9 | 35.4 | 0.00 | 0.00 | 0.00 | 74 | 1011.0 |
| 20260831160714 | 17 | 235 | 20.9 | 35.4 | 0.00 | 0.00 | 0.00 | 71 | 1010.7 |
| 20260831155213 | 18 | 227 | 20.9 | 32.2 | 0.00 | 0.00 | 0.00 | 69 | 1010.6 |
| 20260831153713 | 18 | 231 | 20.9 | 32.2 | 0.00 | 0.00 | 0.00 | 71 | 1010.4 |
| 20260831152212 | 17 | 224 | 17.7 | 32.2 | 0.00 | 0.00 | 0.00 | 71 | 1010.5 |
| 20260831150712 | 17 | 228 | 17.7 | 24.1 | 0.00 | 0.00 | 0.00 | 73 | 1010.3 |
| 20260831145211 | 15 | 220 | 12.9 | 20.9 | 0.00 | 0.00 | 0.00 | 84 | 1010.1 |
| 20260831143711 | 15 | 218 | 12.9 | 27.4 | 0.00 | 0.00 | 0.00 | 86 | 1010.1 |
| 20260831142210 | 15 | 274 | 20.9 | 32.2 | 0.28 | 0.00 | 0.00 | 84 | 1010.2 |
| 20260831140711 | 16 | 280 | 17.7 | 35.4 | 0.00 | 0.00 | 0.00 | 72 | 1010.3 |
| 20260831135210 | 16 | 293 | 24.1 | 41.8 | 0.00 | 0.00 | 0.00 | 68 | 1009.9 |
| 20260831133710 | 17 | 238 | 27.4 | 41.8 | 0.03 | 0.00 | 0.00 | 63 | 1009.6 |
| 20260831132209 | 20 | 236 | 27.4 | 41.8 | 0.00 | 0.00 | 0.00 | 53 | 1009.0 |
| 20260831130709 | 20 | 226 | 24.1 | 41.8 | 0.00 | 0.00 | 0.00 | 52 | 1008.8 |
| 20260831125208 | 21 | 236 | 32.2 | 41.8 | 0.00 | 0.00 | 0.00 | 50 | 1008.6 |
| 20260831123708 | 20 | 245 | 24.1 | 35.4 | 0.00 | 0.00 | 0.00 | 59 | 1008.8 |
| 20260831122208 | 18 | 241 | 20.9 | 35.4 | 0.00 | 0.00 | 0.00 | 65 | 1008.8 |
| 20260831120707 | 18 | 245 | 24.1 | 38.6 | 0.00 | 0.00 | 0.00 | 65 | 1008.7 |
| 20260831115207 | 20 | 217 | 27.4 | 46.7 | 0.00 | 0.00 | 0.00 | 61 | 1008.7 |
| 20260831113707 | 20 | 211 | 24.1 | 41.8 | 0.00 | 0.00 | 0.00 | 61 | 1008.6 |
| 20260831112206 | 20 | 200 | 17.7 | 35.4 | 0.00 | 0.00 | 0.00 | 62 | 1008.3 |
| 20260831110706 | 20 | 206 | 20.9 | 35.4 | 0.00 | 0.00 | 0.00 | 62 | 1008.4 |
| 20260831105204 | 20 | 210 | 20.9 | 32.2 | 0.00 | 0.00 | 0.00 | 61 | 1008.5 |
| 20260831103705 | 18 | 213 | 24.1 | 41.8 | 0.00 | 0.00 | 0.00 | 67 | 1008.7 |
| 20260831102204 | 18 | 221 | 20.9 | 41.8 | 0.00 | 0.00 | 0.00 | 67 | 1008.8 |
| 20260831100705 | 20 | 219 | 20.9 | 41.8 | 0.00 | 0.00 | 0.00 | 68 | 1008.9 |
| 20260831095203 | 18 | 206 | 24.1 | 38.6 | 0.00 | 0.00 | 0.00 | 70 | 1009.0 |
| 20260831093704 | 18 | 210 | 20.9 | 35.4 | 0.00 | 0.00 | 0.00 | 71 | 1008.9 |
| 20260831092200 | 17 | 209 | 20.9 | 35.4 | 0.00 | 0.00 | 0.00 | 72 | 1009.0 |
| 20260831090700 | 17 | 213 | 24.1 | 35.4 | 0.00 | 0.00 | 0.00 | 73 | 1009.0 |
| 20260831085159 | 17 | 207 | 24.1 | 38.6 | 0.00 | 0.00 | 0.00 | 72 | 1009.0 |
| 20260831083659 | 17 | 209 | 20.9 | 38.6 | 0.00 | 0.00 | 0.00 | 73 | 1009.1 |
| 20260831082159 | 17 | 213 | 24.1 | 38.6 | 0.00 | 0.00 | 0.00 | 74 | 1008.9 |
| 20260831080658 | 17 | 212 | 20.9 | 35.4 | 0.00 | 0.00 | 0.00 | 75 | 1008.9 |
| 20260831075158 | 17 | 208 | 17.7 | 27.4 | 0.00 | 0.00 | 0.00 | 76 | 1009.1 |
| 20260831073658 | 16 | 207 | 20.9 | 32.2 | 0.00 | 0.00 | 0.00 | 78 | 1009.1 |
| 20260831072157 | 16 | 217 | 17.7 | 32.2 | 0.00 | 0.00 | 0.00 | 80 | 1009.2 |
| 20260831070656 | 16 | 213 | 20.9 | 32.2 | 0.00 | 0.00 | 0.00 | 80 | 1009.1 |
| 20260831065156 | 16 | 208 | 17.7 | 32.2 | 0.00 | 0.00 | 0.00 | 82 | 1008.9 |
| 20260831063656 | 16 | 201 | 17.7 | 32.2 | 0.00 | 0.00 | 0.00 | 82 | 1008.7 |
| 20260831062155 | 15 | 197 | 17.7 | 32.2 | 0.00 | 0.00 | 0.00 | 82 | 1008.8 |
| 20260831060655 | 15 | 198 | 17.7 | 24.1 | 0.00 | 0.00 | 0.00 | 83 | 1008.7 |
| 20260831055154 | 15 | 200 | 12.9 | 24.1 | 0.00 | 0.00 | 0.00 | 84 | 1008.7 |
| 20260831053654 | 15 | 204 | 12.9 | 27.4 | 0.00 | 0.00 | 0.00 | 85 | 1008.7 |
| 20260831052154 | 15 | 197 | 12.9 | 27.4 | 0.00 | 0.00 | 0.00 | 84 | 1008.5 |
| 20260831050654 | 15 | 194 | 12.9 | 24.1 | 0.00 | 0.00 | 0.00 | 84 | 1008.6 |
| 20260831045153 | 15 | 197 | 17.7 | 24.1 | 0.00 | 0.00 | 0.00 | 84 | 1008.6 |
| 20260831043654 | 15 | 194 | 17.7 | 24.1 | 0.00 | 0.00 | 0.00 | 84 | 1008.5 |
| 20260831042153 | 15 | 186 | 12.9 | 20.9 | 0.00 | 0.00 | 0.00 | 83 | 1008.5 |
| 20260831040653 | 15 | 187 | 9.7 | 20.9 | 0.00 | 0.00 | 0.00 | 83 | 1008.6 |
| 20260831035153 | 15 | 186 | 9.7 | 17.7 | 0.00 | 0.00 | 0.00 | 84 | 1008.8 |
| 20260831033653 | 15 | 181 | 9.7 | 12.9 | 0.00 | 0.00 | 0.00 | 86 | 1008.7 |
| 20260831032153 | 15 | 181 | 6.4 | 9.7 | 0.00 | 0.00 | 0.00 | 87 | 1008.6 |
| 20260831030653 | 15 | 189 | 6.4 | 9.7 | 0.00 | 0.00 | 0.00 | 87 | 1008.7 |
| 20260831025152 | 15 | 193 | 6.4 | 12.9 | 0.00 | 0.00 | 0.00 | 86 | 1008.7 |
| 20260831023652 | 15 | 170 | 9.7 | 12.9 | 0.00 | 0.00 | 0.00 | 85 | 1008.7 |
| 20260831022152 | 15 | 172 | 9.7 | 12.9 | 0.00 | 0.00 | 0.00 | 84 | 1008.7 |
| 20260831020653 | 15 | 172 | 9.7 | 12.9 | 0.00 | 0.00 | 0.00 | 84 | 1008.8 |
| 20260831015152 | 15 | 184 | 9.7 | 12.9 | 0.00 | 0.00 | 0.00 | 84 | 1009.0 |
| 20260831013652 | 15 | 179 | 6.4 | 12.9 | 0.00 | 0.00 | 0.00 | 83 | 1009.0 |
| 20260831012152 | 16 | 177 | 9.7 | 17.7 | 0.00 | 0.00 | 0.00 | 81 | 1009.2 |
| 20260831010652 | 16 | 183 | 9.7 | 20.9 | 0.00 | 0.00 | 0.00 | 80 | 1009.4 |
| 20260831005151 | 15 | 170 | 9.7 | 12.9 | 0.00 | 0.00 | 0.00 | 83 | 1009.6 |
| 20260831003651 | 15 | 169 | 9.7 | 9.7 | 0.00 | 0.00 | 0.00 | 83 | 1009.5 |
| 20260831002151 | 15 | 163 | 9.7 | 9.7 | 0.00 | 0.00 | 0.00 | 84 | 1009.5 |
| 20260831000651 | 15 | 160 | 6.4 | 9.7 | 0.00 | 0.00 | 0.00 | 84 | 1009.6 |
| 20260830235151 | 15 | 155 | 6.4 | 9.7 | 0.00 | 0.00 | 0.00 | 83 | 1009.7 |
| 20260830233651 | 15 | 179 | 3.2 | 9.7 | 0.00 | 0.00 | 0.00 | 82 | 1009.7 |
| 20260830232150 | 16 | 180 | 6.4 | 9.7 | 0.00 | 0.00 | 0.00 | 81 | 1009.9 |
| 20260830230650 | 16 | 175 | 6.4 | 9.7 | 0.00 | 0.00 | 0.00 | 82 | 1010.0 |
| 20260830225150 | 15 | 176 | 6.4 | 9.7 | 0.00 | 0.00 | 0.00 | 84 | 1010.2 |
| 20260830223650 | 15 | 155 | 6.4 | 9.7 | 0.00 | 0.00 | 0.00 | 88 | 1010.4 |
| 20260830222149 | 15 | 150 | 6.4 | 9.7 | 0.00 | 0.00 | 0.00 | 87 | 1010.5 |
| 20260830220649 | 15 | 156 | 6.4 | 9.7 | 0.00 | 0.00 | 0.00 | 88 | 1010.7 |
| 20260830215149 | 15 | 151 | 6.4 | 9.7 | 0.00 | 0.00 | 0.00 | 88 | 1010.6 |
| 20260830213649 | 15 | 145 | 6.4 | 9.7 | 0.00 | 0.00 | 0.00 | 90 | 1010.8 |
| 20260830212148 | 15 | 153 | 6.4 | 6.4 | 0.00 | 0.00 | 0.00 | 93 | 1010.9 |
| 20260830210648 | 15 | 146 | 3.2 | 6.4 | 0.00 | 0.00 | 0.00 | 95 | 1011.1 |
| 20260830205148 | 15 | 150 | 3.2 | 6.4 | 0.00 | 0.00 | 0.00 | 94 | 1011.1 |
| 20260830203648 | 13 | 146 | 6.4 | 6.4 | 0.00 | 0.00 | 0.00 | 94 | 1011.1 |
| 20260830202148 | 13 | 146 | 6.4 | 6.4 | 0.00 | 0.00 | 0.00 | 94 | 1011.1 |
| 20260830200648 | 13 | 135 | 3.2 | 3.2 | 0.00 | 0.00 | 0.00 | 95 | 1011.2 |
| 20260830195147 | 15 | 57 | 0.0 | 0.0 | 0.00 | 0.00 | 0.00 | 95 | 1011.3 |
| 20260830193647 | 15 | 128 | 0.0 | 3.2 | 0.00 | 0.00 | 0.00 | 95 | 1011.4 |